Location: Gebenbach
(49.5378°N, 11.8735°E)
Time: 02:35:10
(UTC+00:00)

COSMO-SKYMED 1 - Pass Details

Date: 29 October 2020
Orbit: 621 x 623 km, 97.9° (Epoch: 24 November)

Event Time Altitude Azimuth Distance (km) Brightness Sun altitude
Rises 16:59:58 0° 18° (NNE) 2,916 5.7 -11.0°
Reaches altitude 10° 17:02:14 10° 24° (NNE) 2,004 4.9 -11.4°
Maximum altitude 17:06:27 47° 99° (E) 832 2.8 -12.1°
Drops below altitude 10° 17:10:37 10° 174° (S) 1,987 5.2 -12.8°
Sets 17:12:52 0° 180° (S) 2,888 6.1 -13.1°
